Temperature
21 21 20 20 21 22 24 25 26 26 27 27 27 26 24 23 22 20 19 20 20 19 19 19 19 19 19 19 19 19 19 19 19 19 19 19 19 19 19 19 19 19 19 19 19 19 19 19 19
21 20 20 21 22 23 24 25 26 26 27 27 26 25 24 22 21 20 19 19 19 19 19 19 19 19 19 19 19 19 19 19 19 19 19 19 19 19 19 19 19 19 19 19 19 19 19 19 19
21 21 21 22 23 24 24 25 26 27 26 26 26 24 22 20 19 19 19 19 19 19 19 19 19 19 19 19 19 19 19 19 18 18 18 18 18 18 18 19 19 19 19 19 19 19 19 19 19
21 22 23 23 24 25 26 26 27 27 26 26 25 23 20 19 19 18 19 19 19 19 18 19 19 19 19 19 19 19 18 18 18 18 18 18 18 18 18 18 18 19 19 18 18 18 18 18 18
22 23 22 23 25 26 27 27 27 26 26 26 25 22 20 19 19 18 19 19 19 18 18 19 19 19 18 18 18 18 18 18 18 18 18 18 18 18 18 18 18 18 18 18 18 18 19 18 18
23 24 23 23 25 26 26 27 27 26 26 25 24 22 19 19 19 18 18 18 18 18 18 18 18 18 18 18 18 18 18 18 18 18 18 18 18 18 18 18 18 18 18 18 18 18 18 18 18
24 24 24 25 25 25 26 27 26 26 25 25 24 22 20 19 19 18 18 18 18 18 18 18 17 18 18 18 18 18 18 18 18 18 18 18 18 18 18 18 18 18 18 18 18 18 18 18 18
25 25 25 25 25 25 27 27 26 25 25 24 24 22 20 19 19 19 19 19 18 18 18 18 18 17 17 17 18 18 18 18 18 18 18 18 18 18 18 18 18 18 18 18 18 18 18 18 18
25 25 23 25 26 26 27 26 25 25 24 23 22 21 20 20 20 19 19 19 19 18 18 18 18 17 17 17 17 17 17 18 18 18 18 18 18 18 18 18 18 18 18 18 18 18 18 18 18
27 25 25 26 27 27 27 26 26 25 24 23 22 21 21 21 20 20 20 19 19 18 18 18 17 17 17 17 17 17 17 17 17 17 17 17 17 18 18 17 18 18 18 18 18 18 18 18 18
28 26 27 27 27 27 27 26 26 25 24 23 22 22 21 21 21 20 20 19 19 18 17 17 17 17 17 16 16 16 16 16 16 16 17 17 17 17 17 17 17 17 17 17 17 18 18 18 18
28 28 28 27 26 26 26 26 25 25 24 23 22 21 21 21 21 20 19 19 18 18 17 17 16 16 16 16 16 16 16 16 16 16 16 16 16 17 17 17 17 17 17 17 17 17 17 18 18
27 26 26 26 26 26 26 26 25 24 23 22 22 21 21 21 20 20 19 19 18 17 17 16 16 15 15 15 15 15 15 15 15 15 16 16 16 16 16 17 17 17 17 17 17 17 17 17 18
26 25 26 26 26 26 26 25 24 23 22 22 22 22 21 20 20 20 19 18 18 17 17 16 15 15 15 14 14 14 15 15 15 15 15 15 15 16 16 16 16 17 17 17 17 17 17 17 18
27 27 27 26 26 26 26 25 25 23 23 23 22 22 21 21 20 20 19 18 18 17 17 16 15 15 14 14 14 14 14 14 14 15 15 15 15 15 15 16 16 16 16 16 17 17 17 17 17
28 27 25 25 25 25 25 25 25 23 23 23 23 22 21 21 20 20 19 18 17 17 16 16 15 14 14 14 14 14 14 14 14 14 14 14 15 15 15 15 15 16 16 16 16 17 17 17 17
25 24 24 24 26 26 26 25 25 23 24 23 23 22 22 22 21 20 19 18 17 17 16 16 15 14 14 14 13 13 13 14 14 14 14 14 14 14 14 15 15 15 15 16 16 16 16 17 17
24 24 24 25 26 26 26 26 26 24 24 24 23 23 23 22 21 20 19 18 17 17 16 16 15 14 14 14 13 13 13 13 13 13 13 14 14 14 14 14 14 15 15 15 16 16 16 16 17
26 26 27 27 27 26 26 26 26 25 24 24 24 23 23 23 21 20 19 18 17 17 16 15 15 14 14 13 13 13 13 13 13 13 13 13 13 13 14 14 14 14 15 15 15 15 16 16 16
26 27 28 28 27 26 26 26 27 26 25 24 24 23 23 22 21 20 19 18 17 17 16 15 15 14 14 13 13 13 13 13 13 13 13 13 13 13 13 13 14 14 14 15 15 15 15 16 16
27 27 27 26 27 27 26 25 26 26 25 24 23 23 22 22 21 20 19 18 17 16 16 15 15 14 14 13 13 13 13 13 13 13 13 13 13 13 13 13 13 14 14 14 14 15 15 15 16
27 27 26 26 25 25 26 24 25 25 25 24 24 23 22 21 20 19 19 18 17 16 15 15 14 14 13 13 13 12 12 12 12 12 12 13 13 13 13 13 13 13 13 14 14 14 15 15 15
27 26 26 26 25 25 26 25 25 25 25 24 24 23 22 21 20 19 18 17 17 16 15 14 14 13 13 13 12 12 12 12 12 12 12 12 13 13 13 13 13 13 13 13 14 14 14 14 15
27 26 26 26 25 24 26 26 25 25 24 24 24 23 22 21 20 19 18 17 17 16 15 14 14 13 13 13 13 12 12 12 12 12 12 12 12 12 12 12 13 13 13 13 13 14 14 14 14
26 25 25 24 24 25 26 25 25 24 25 24 24 23 22 21 20 19 18 17 17 16 15 14 14 13 13 13 13 12 12 12 12 12 12 12 12 12 12 12 12 12 13 13 13 13 14 14 14
26 26 24 24 25 25 25 25 24 25 24 23 23 22 22 21 20 19 18 17 17 16 15 15 14 14 13 13 13 12 12 12 12 12 12 11 11 12 12 12 12 12 12 13 13 13 13 13 14
26 26 26 25 25 25 26 26 24 24 24 24 23 22 22 21 20 19 18 17 17 16 16 15 14 14 14 13 13 13 12 12 12 11 11 11 11 11 11 12 12 12 12 12 13 13 13 13 13
26 26 25 24 24 24 25 26 24 23 24 24 24 23 22 21 20 19 18 18 17 16 16 15 15 14 14 13 13 13 12 12 12 12 11 11 11 11 11 12 12 12 12 12 12 12 13 13 13
25 25 25 25 25 24 23 23 25 24 24 24 23 23 22 21 20 19 19 18 17 16 16 16 15 15 14 14 13 13 12 12 12 12 11 11 11 11 11 11 11 12 12 12 12 12 12 13 13
26 26 25 24 24 25 24 23 25 24 24 24 23 23 22 21 20 19 19 18 17 17 16 16 16 15 14 14 13 13 13 12 12 12 12 11 11 11 11 11 11 11 11 11 12 12 12 12 13
Wind_Speed
10 11 7 3 2 2 5 7 10 9 7 9 10 10 13 13 8 6 2 6 7 11 13 11 9 6 5 4 3 2 1 1 1 1 1 2 2 2 2 2 2 2 2 2 2 3 3 4 4
10 8 5 3 2 1 5 6 9 9 8 6 8 12 12 10 10 6 5 6 7 10 12 11 9 6 4 2 1 0 1 2 2 3 3 4 3 3 3 3 3 3 3 2 2 2 2 3 3
10 8 4 3 1 3 5 5 6 8 8 8 9 11 7 6 7 4 5 6 9 11 14 12 10 7 5 3 2 2 2 3 4 4 5 5 5 5 4 4 4 4 4 3 3 2 2 2 3
6 4 4 2 3 8 7 6 5 5 7 9 8 9 7 7 4 5 7 9 10 10 13 12 11 9 7 6 5 3 3 4 4 5 5 6 6 6 6 6 5 5 5 4 4 3 3 3 3
6 3 2 2 5 7 7 6 6 6 8 10 10 9 7 8 7 8 8 9 9 9 10 10 9 8 7 6 6 5 3 3 4 5 5 6 6 6 7 7 7 6 6 5 5 4 4 4 4
3 3 2 1 4 6 5 5 7 8 9 9 8 8 6 7 8 7 8 8 8 8 8 8 8 7 5 5 5 5 4 4 3 4 5 6 7 8 8 7 7 7 7 7 6 5 5 5 5
4 5 3 2 4 4 5 5 8 7 9 9 6 6 6 8 7 6 7 7 6 6 5 5 5 4 3 3 3 3 4 4 4 4 5 6 7 8 9 9 9 9 9 8 8 7 7 7 7
4 5 6 4 4 5 5 5 7 7 8 8 8 6 6 6 6 6 6 6 5 5 4 3 2 2 2 1 1 2 3 4 4 5 6 7 8 9 10 11 11 11 10 10 9 9 9 9 8
5 3 3 4 4 5 4 5 5 5 9 11 12 11 8 6 6 5 4 4 4 4 3 3 2 2 1 2 1 2 3 4 5 6 6 7 7 7 7 9 10 10 11 11 11 11 10 10 11
6 2 2 3 5 5 4 4 3 4 7 9 10 8 6 4 4 4 4 5 6 5 6 5 4 3 2 3 2 2 3 3 4 5 4 5 5 5 7 7 8 9 10 11 12 12 11 11 11
3 1 4 5 6 4 3 3 2 2 4 6 7 7 5 3 5 5 6 7 6 6 7 7 7 6 4 3 3 2 3 4 5 5 5 5 5 5 6 5 5 6 8 8 8 9 10 11 10
2 2 3 4 4 2 2 2 2 6 6 8 7 4 3 3 5 5 6 5 4 6 5 5 7 6 6 5 3 4 3 2 3 4 5 4 3 3 3 3 4 4 5 4 4 4 8 10 10
2 2 4 4 2 1 1 2 2 5 5 6 5 3 3 5 5 5 5 5 5 6 5 6 6 7 5 4 3 4 3 2 4 3 5 6 3 4 4 3 4 5 5 4 3 3 5 6 6
6 5 5 5 4 2 3 4 5 6 6 5 4 3 3 4 3 3 5 6 6 6 6 6 6 6 6 6 6 5 4 5 5 4 5 6 4 3 4 4 4 4 6 6 5 5 5 6 5
5 6 6 5 5 3 4 7 7 10 7 5 4 4 3 1 2 1 5 5 6 6 6 6 6 7 7 6 7 5 5 6 4 5 7 7 6 4 3 4 4 4 6 7 5 5 4 6 5
7 8 6 6 5 3 4 5 10 10 8 5 4 2 3 3 3 2 5 5 6 6 6 5 7 7 6 6 5 4 5 5 4 6 6 7 8 6 3 3 4 4 5 4 5 5 5 5 5
4 5 6 5 9 6 5 5 9 9 6 6 5 4 4 4 2 4 5 5 5 5 5 6 5 5 6 6 5 4 5 4 4 6 5 7 9 8 4 3 3 4 3 4 5 5 5 6 6
4 5 8 6 8 4 6 7 7 10 7 5 4 4 5 2 3 5 5 3 3 4 6 6 5 5 5 5 5 5 5 5 4 4 4 7 7 8 5 4 4 3 3 4 4 5 5 5 6
7 9 9 1 6 2 8 8 4 9 7 5 6 5 4 1 4 7 4 3 4 5 6 6 5 5 4 4 4 5 5 5 5 4 5 6 7 7 5 5 4 3 3 4 5 4 5 5 4
11 11 9 3 5 2 8 9 5 6 5 3 3 5 4 3 3 5 5 4 4 5 5 5 5 5 4 3 3 4 5 5 4 4 4 6 7 7 6 5 4 4 3 4 5 4 4 3 4
10 6 6 8 7 7 8 9 7 8 5 4 3 3 4 3 4 5 6 5 4 5 6 6 5 5 6 6 3 5 5 4 5 5 5 5 6 5 4 5 5 5 4 3 4 4 5 4 4
6 6 5 7 8 7 4 4 7 9 7 6 5 2 0 2 2 3 3 4 4 5 6 6 7 7 7 7 5 6 5 5 6 5 5 7 6 6 5 4 5 5 4 4 4 4 3 4 5
4 4 5 7 8 10 8 6 5 8 5 5 5 2 2 3 3 3 3 3 4 5 5 4 5 6 6 6 5 5 5 5 5 5 6 7 6 6 5 5 5 5 4 5 4 4 4 4 5
1 5 8 7 7 9 6 4 4 4 5 5 4 4 3 4 3 3 2 3 3 3 3 3 3 3 3 4 5 5 5 6 7 6 6 6 5 5 6 6 5 5 4 5 5 4 5 5 6
5 7 5 7 7 3 7 2 5 10 8 5 4 4 3 4 2 2 2 2 2 2 1 2 3 3 3 4 5 5 5 5 6 6 6 6 5 5 6 7 6 5 5 5 5 5 5 5 6
4 7 6 5 3 3 5 3 8 9 7 4 2 2 2 2 3 2 2 2 1 0 0 1 2 3 2 3 5 4 5 4 4 5 6 6 5 5 6 7 6 6 5 6 5 5 5 5 5
5 5 2 5 8 4 5 7 8 7 6 5 2 2 2 2 3 3 2 1 0 0 1 1 2 3 3 4 4 4 4 5 5 6 6 5 5 6 7 7 6 6 5 5 5 4 5 5 5
5 7 3 4 5 4 3 5 6 6 4 2 1 1 2 2 2 3 3 2 1 0 0 1 2 3 2 3 4 4 4 4 5 5 6 6 6 6 7 7 7 6 5 5 4 5 5 5 5
7 6 4 5 5 4 3 4 6 6 4 2 3 2 2 2 1 2 3 2 2 1 2 3 2 1 1 2 4 4 4 4 5 5 5 6 6 6 7 7 6 6 5 5 5 5 5 5 5
3 5 4 4 4 2 3 3 5 6 3 1 2 2 2 3 2 2 2 1 1 1 2 2 2 1 1 2 3 5 5 4 5 6 6 7 7 7 7 7 7 6 6 5 5 6 6 5 5
Wind_Direction
191 204 208 230 251 255 57 54 54 33 34 33 37 58 66 52 40 72 35 25 68 100 115 114 110 110 108 107 104 94 74 48 17 337 311 299 292 297 307 315 323 333 343 353 2 8 9 11 12
206 204 218 237 274 34 65 51 56 47 32 26 51 61 66 60 47 69 30 22 64 84 96 99 98 92 88 87 90 67 301 296 291 284 283 282 278 275 279 286 291 299 307 315 327 337 347 355 357
232 224 239 234 344 63 80 64 59 57 38 35 58 59 53 42 40 44 21 29 66 76 83 83 82 76 67 52 20 337 299 290 286 282 280 276 272 270 270 272 274 280 284 291 299 304 317 327 330
219 230 258 259 77 66 68 61 53 55 52 46 66 72 71 45 43 47 42 51 62 69 80 79 76 72 66 55 41 17 340 314 297 288 281 277 273 271 273 273 273 273 273 276 279 278 282 289 297
232 243 270 324 76 77 65 46 51 59 58 53 69 89 83 66 63 62 54 54 61 65 75 81 76 72 65 57 46 32 13 335 311 297 287 281 278 275 272 270 272 271 270 270 273 269 266 268 274
260 262 274 6 75 80 62 46 48 57 60 51 76 92 83 83 68 64 66 60 60 60 60 79 85 72 61 49 33 17 10 359 338 311 293 279 275 275 273 269 267 268 268 268 267 265 260 260 262
262 279 279 119 97 92 80 47 49 56 53 36 41 95 104 88 89 85 82 81 74 69 66 54 67 79 86 61 35 6 347 338 328 308 291 283 272 267 265 265 264 262 262 262 261 257 253 254 254
269 289 330 21 76 87 84 72 54 46 65 49 35 86 101 101 111 106 105 103 95 86 81 74 60 78 75 70 286 300 305 302 302 291 276 275 268 259 257 256 255 253 256 255 256 254 249 249 250
260 283 345 11 45 92 95 91 82 79 83 75 66 76 98 126 131 116 104 94 79 64 64 62 40 25 1 274 255 246 272 282 283 279 273 269 261 259 256 257 258 251 251 253 254 253 249 248 246
231 293 84 26 40 91 83 73 93 116 100 102 100 101 113 126 106 75 59 42 35 29 29 21 3 351 339 323 325 266 281 266 265 263 259 258 258 259 262 276 269 257 252 253 253 252 250 245 247
248 8 66 61 49 71 92 80 33 76 94 97 109 110 98 79 68 49 41 41 26 27 19 9 1 349 349 342 343 320 290 264 257 251 239 240 250 252 250 244 255 255 255 250 256 250 245 241 241
242 68 66 81 70 38 77 92 54 52 72 86 91 99 100 68 50 46 40 30 21 38 15 15 0 349 350 353 340 293 268 249 253 250 251 232 227 238 238 229 225 227 242 247 246 247 253 255 252
193 103 97 103 137 104 87 118 98 108 106 105 114 118 80 52 26 31 37 20 20 31 13 27 1 354 344 339 314 321 311 297 286 268 262 248 227 232 233 225 225 222 226 231 236 240 260 264 272
129 155 169 161 159 164 212 182 178 152 153 154 166 159 93 65 11 4 34 9 12 16 7 25 357 357 348 348 340 328 321 309 303 293 277 266 247 234 232 237 228 225 225 220 221 229 247 264 261
158 187 190 183 193 179 264 244 189 141 169 186 205 179 112 65 305 13 49 5 15 8 5 16 352 7 356 351 339 328 317 319 323 315 307 300 280 258 241 231 237 229 230 223 216 232 242 255 258
223 234 225 188 193 167 253 299 130 144 181 202 218 199 156 204 245 66 57 15 17 0 359 18 6 357 352 352 330 317 321 327 322 317 314 315 313 300 285 254 246 241 229 215 209 215 229 240 247
231 271 287 204 192 193 234 289 145 161 192 218 217 219 208 219 167 83 61 28 10 350 358 23 16 0 360 350 334 327 329 327 328 329 335 334 328 321 311 287 259 253 241 228 230 215 214 227 233
243 257 268 236 169 225 271 276 176 170 191 238 250 237 231 231 93 89 73 42 5 6 15 19 11 14 5 3 344 339 334 333 331 326 328 332 319 314 310 294 281 266 248 242 236 229 219 223 223
285 274 277 103 118 300 292 286 231 166 178 217 242 246 253 93 87 100 86 62 30 27 24 3 10 13 16 15 342 336 329 327 320 319 338 329 318 313 300 294 296 284 257 250 248 236 228 224 211
265 276 299 32 102 313 291 285 260 157 170 201 289 311 322 45 50 85 80 59 38 38 28 359 16 11 22 11 341 332 328 318 318 331 329 335 327 319 313 305 303 291 270 258 256 247 229 227 208
262 287 341 342 326 281 271 266 211 144 153 169 210 276 315 12 25 30 37 31 31 44 29 2 17 13 22 5 6 349 329 324 347 344 339 331 320 319 321 314 306 300 286 263 259 247 234 228 222
303 49 356 312 296 285 240 292 156 146 166 174 175 195 197 68 65 58 50 35 19 44 37 5 15 17 18 5 5 344 337 346 337 339 332 334 332 337 328 320 314 303 297 283 267 255 240 229 230
16 19 304 284 279 280 249 255 140 145 154 138 125 120 96 93 86 61 61 55 28 49 42 8 11 15 11 353 341 331 345 337 325 330 335 339 332 331 332 330 321 311 300 293 285 279 252 231 229
345 267 253 246 256 258 222 239 126 121 89 80 103 119 120 114 116 125 108 97 65 62 49 359 3 10 354 335 330 338 337 333 328 339 340 333 326 331 340 335 330 318 311 307 300 288 273 251 238
236 260 257 221 218 210 111 179 83 89 75 60 49 60 80 106 123 120 111 87 65 50 45 344 358 350 353 336 331 336 339 335 337 346 334 331 333 333 332 333 322 314 307 301 297 285 275 264 250
237 269 286 302 296 112 154 166 101 99 98 95 107 108 112 151 136 112 106 115 154 223 72 357 340 324 336 325 327 333 343 344 337 333 325 330 329 321 324 321 310 305 302 301 294 284 277 273 263
271 243 315 319 294 284 167 125 125 133 143 141 150 155 188 159 141 155 145 123 321 247 95 0 328 326 333 330 326 337 350 345 334 326 330 330 324 325 329 316 311 307 299 291 291 282 280 278 272
287 328 293 253 299 287 163 149 130 128 98 82 100 135 114 123 158 150 145 160 201 283 197 234 267 283 320 336 332 342 345 332 322 319 326 322 320 321 315 319 319 311 306 301 296 292 281 278 270
191 213 242 279 288 304 347 74 79 87 66 18 351 57 114 118 127 131 144 153 164 232 240 233 239 253 13 355 341 333 324 315 316 322 327 322 321 322 323 324 326 324 320 313 308 299 293 290 286
254 264 251 262 290 240 283 103 106 111 120 102 10 20 98 125 130 150 147 147 215 250 292 303 319 20 59 33 343 322 309 326 340 341 340 338 336 333 332 335 336 334 329 322 312 311 312 302 299
Height
1525 1525 1527 1529 1529 1530 1527 1521 1516 1516 1515 1516 1516 1516 1522 1526 1531 1540 1540 1538 1537 1537 1536 1537 1538 1539 1540 1541 1542 1543 1544 1545 1545 1546 1547 1547 1548 1548 1548 1548 1548 1548 1548 1548 1548 1548 1548 1548 1548
1525 1526 1529 1529 1530 1536 1531 1521 1519 1518 1518 1517 1517 1520 1524 1530 1534 1537 1538 1538 1538 1537 1537 1537 1538 1539 1540 1540 1541 1542 1543 1544 1545 1545 1546 1546 1547 1547 1547 1548 1548 1548 1548 1548 1548 1548 1548 1548 1549
1525 1527 1528 1527 1529 1531 1530 1521 1519 1519 1519 1518 1520 1524 1530 1535 1537 1538 1538 1538 1538 1537 1537 1538 1538 1539 1539 1540 1540 1541 1542 1543 1543 1544 1545 1545 1546 1546 1546 1547 1547 1547 1547 1547 1548 1548 1548 1548 1548
1526 1528 1527 1526 1527 1520 1519 1518 1518 1519 1520 1521 1522 1528 1535 1538 1539 1539 1539 1538 1538 1538 1537 1537 1538 1538 1538 1539 1539 1540 1540 1541 1542 1542 1543 1544 1544 1544 1545 1545 1546 1546 1546 1547 1547 1547 1547 1547 1547
1527 1526 1527 1528 1522 1518 1517 1519 1519 1520 1521 1523 1525 1532 1537 1540 1540 1539 1539 1538 1538 1538 1537 1537 1537 1537 1537 1537 1538 1538 1539 1539 1540 1540 1541 1542 1542 1543 1543 1544 1544 1545 1545 1545 1545 1546 1546 1546 1546
1527 1523 1530 1532 1524 1519 1519 1520 1520 1521 1523 1525 1527 1532 1539 1541 1540 1540 1539 1538 1538 1538 1537 1536 1536 1536 1536 1536 1536 1536 1537 1537 1537 1538 1539 1539 1540 1541 1541 1542 1542 1543 1543 1544 1544 1544 1545 1545 1545
1526 1522 1524 1523 1524 1521 1520 1521 1522 1524 1526 1528 1529 1533 1539 1540 1540 1540 1539 1539 1538 1537 1537 1536 1535 1535 1534 1534 1533 1533 1534 1534 1534 1535 1536 1537 1538 1538 1539 1539 1540 1541 1541 1542 1542 1543 1543 1543 1544
1523 1520 1523 1522 1522 1523 1520 1522 1525 1526 1528 1531 1531 1534 1539 1541 1541 1540 1540 1539 1538 1538 1537 1536 1535 1534 1533 1532 1531 1531 1530 1531 1531 1532 1533 1533 1534 1535 1536 1537 1537 1538 1539 1540 1540 1541 1541 1541 1542
1521 1522 1530 1524 1521 1521 1520 1522 1526 1528 1530 1533 1535 1537 1540 1541 1541 1541 1541 1540 1539 1539 1537 1536 1535 1534 1532 1531 1530 1529 1528 1527 1528 1528 1528 1529 1530 1531 1532 1533 1534 1535 1536 1537 1538 1539 1539 1540 1540
1516 1522 1523 1518 1517 1519 1520 1522 1525 1527 1530 1533 1536 1539 1540 1540 1541 1541 1541 1541 1540 1539 1538 1536 1535 1533 1531 1530 1528 1527 1526 1525 1525 1525 1525 1526 1527 1527 1528 1529 1531 1532 1533 1534 1535 1536 1537 1537 1538
1512 1515 1515 1517 1519 1519 1521 1524 1526 1527 1531 1533 1536 1538 1540 1540 1541 1541 1541 1540 1540 1539 1537 1536 1534 1532 1530 1529 1527 1525 1524 1523 1522 1522 1522 1522 1523 1524 1525 1525 1527 1528 1529 1531 1532 1533 1534 1535 1536
1511 1512 1514 1517 1520 1521 1522 1525 1527 1529 1532 1534 1537 1538 1539 1540 1540 1541 1540 1540 1539 1537 1536 1535 1533 1531 1529 1527 1525 1524 1523 1522 1521 1520 1520 1519 1520 1520 1521 1522 1523 1524 1526 1527 1529 1530 1531 1532 1533
1511 1513 1515 1518 1521 1522 1523 1525 1528 1531 1534 1536 1537 1538 1539 1540 1541 1540 1540 1539 1539 1537 1536 1533 1532 1530 1528 1526 1524 1522 1521 1520 1519 1518 1517 1517 1517 1517 1517 1517 1519 1520 1522 1523 1525 1527 1528 1529 1531
1511 1514 1515 1517 1520 1522 1523 1525 1528 1530 1533 1535 1537 1538 1539 1540 1540 1540 1539 1539 1538 1536 1535 1532 1530 1529 1527 1524 1522 1521 1519 1518 1518 1517 1516 1515 1515 1514 1514 1514 1515 1516 1518 1519 1521 1523 1525 1526 1528
1509 1511 1514 1517 1519 1521 1523 1523 1523 1527 1532 1534 1535 1536 1538 1539 1539 1538 1538 1538 1537 1535 1534 1531 1530 1527 1525 1523 1521 1519 1518 1517 1516 1515 1514 1513 1513 1512 1512 1512 1512 1513 1514 1515 1517 1519 1521 1522 1525
1508 1512 1519 1517 1518 1522 1526 1526 1522 1526 1529 1532 1533 1534 1536 1536 1537 1536 1536 1537 1536 1534 1533 1530 1528 1526 1524 1521 1519 1517 1516 1515 1513 1512 1512 1511 1510 1510 1509 1509 1509 1510 1511 1512 1513 1515 1517 1518 1520
1515 1525 1525 1520 1516 1518 1521 1522 1521 1524 1527 1529 1530 1532 1533 1533 1534 1534 1535 1535 1534 1533 1532 1529 1527 1525 1522 1520 1518 1516 1515 1513 1512 1510 1509 1508 1508 1507 1507 1506 1506 1507 1507 1508 1510 1511 1513 1515 1516
1523 1524 1521 1516 1513 1515 1517 1517 1517 1520 1524 1526 1528 1529 1530 1531 1532 1532 1533 1534 1533 1532 1530 1528 1526 1524 1521 1519 1516 1515 1513 1511 1510 1508 1507 1506 1505 1504 1504 1504 1504 1504 1504 1505 1506 1507 1509 1511 1513
1511 1513 1512 1508 1510 1514 1516 1514 1512 1516 1521 1524 1525 1526 1527 1528 1530 1531 1531 1532 1532 1531 1529 1527 1525 1523 1520 1518 1515 1513 1511 1510 1508 1507 1506 1504 1502 1502 1501 1501 1501 1501 1501 1502 1503 1504 1505 1507 1509
1511 1511 1508 1505 1508 1513 1514 1512 1508 1512 1518 1521 1524 1525 1526 1527 1529 1530 1530 1531 1530 1529 1528 1526 1524 1522 1519 1517 1515 1513 1511 1509 1508 1506 1504 1502 1501 1499 1499 1498 1498 1498 1498 1499 1499 1500 1502 1503 1505
1506 1507 1510 1513 1510 1509 1514 1514 1508 1510 1516 1520 1523 1524 1525 1526 1528 1529 1530 1530 1529 1528 1526 1525 1523 1522 1519 1517 1514 1512 1510 1508 1507 1505 1503 1501 1499 1498 1497 1496 1495 1495 1496 1496 1496 1497 1498 1499 1501
1509 1507 1510 1513 1518 1516 1512 1525 1511 1509 1513 1516 1520 1522 1524 1525 1527 1528 1529 1529 1528 1527 1525 1524 1523 1521 1518 1516 1513 1511 1509 1507 1506 1504 1501 1499 1498 1496 1495 1494 1493 1493 1493 1493 1494 1494 1495 1496 1497
1508 1508 1510 1512 1516 1518 1511 1518 1513 1508 1513 1514 1518 1520 1523 1524 1526 1527 1527 1527 1527 1526 1524 1523 1521 1519 1517 1515 1513 1511 1509 1507 1505 1503 1500 1498 1496 1495 1493 1492 1491 1491 1490 1491 1491 1491 1492 1492 1493
1507 1510 1510 1511 1515 1524 1508 1515 1517 1511 1513 1514 1516 1519 1521 1523 1524 1525 1526 1526 1525 1524 1523 1522 1520 1518 1516 1514 1512 1510 1508 1506 1504 1502 1499 1497 1495 1493 1492 1490 1489 1488 1488 1488 1488 1488 1488 1489 1490
1509 1515 1524 1526 1528 1518 1504 1513 1515 1511 1511 1514 1517 1519 1520 1522 1523 1524 1524 1524 1524 1523 1522 1521 1519 1518 1516 1514 1512 1510 1508 1505 1503 1501 1498 1496 1494 1492 1490 1488 1487 1486 1485 1485 1485 1485 1485 1485 1486
1506 1511 1526 1532 1522 1514 1508 1513 1514 1508 1512 1515 1517 1518 1520 1521 1522 1522 1523 1523 1523 1522 1521 1520 1518 1517 1515 1513 1511 1509 1507 1505 1502 1500 1498 1495 1493 1491 1489 1487 1485 1484 1483 1482 1482 1481 1481 1482 1482
1508 1508 1506 1518 1513 1516 1507 1507 1511 1508 1510 1513 1515 1517 1518 1519 1520 1521 1521 1522 1521 1521 1520 1519 1518 1516 1514 1512 1510 1508 1506 1503 1501 1499 1497 1494 1492 1490 1487 1485 1483 1482 1481 1479 1479 1478 1478 1478 1479
1507 1507 1510 1518 1523 1524 1512 1509 1512 1511 1510 1511 1513 1514 1516 1517 1518 1519 1520 1520 1520 1520 1519 1517 1516 1515 1513 1511 1510 1508 1505 1503 1500 1498 1495 1493 1491 1488 1486 1484 1482 1480 1478 1477 1476 1476 1475 1475 1475
1509 1511 1512 1513 1514 1526 1528 1523 1506 1508 1510 1511 1512 1513 1514 1516 1517 1518 1518 1518 1518 1518 1517 1516 1515 1514 1512 1510 1508 1506 1504 1502 1499 1497 1495 1492 1490 1487 1485 1483 1480 1478 1476 1475 1474 1473 1473 1472 1472
1502 1504 1508 1520 1515 1513 1522 1524 1504 1506 1508 1509 1511 1512 1513 1514 1515 1516 1517 1517 1517 1517 1516 1516 1515 1513 1511 1509 1507 1505 1503 1501 1499 1496 1494 1491 1489 1486 1484 1481 1479 1477 1475 1474 1472 1471 1470 1470 1469